Regional Weather Roundup
Issued by NWS Kansas City/Pleasant Hill, MO

Home | Current Version | Previous Version | Text Only | Print | Product List | Glossary On
Versions: 1 2 3 4 5 6 7 8 9 10 11 12 13 14 15 16 17 18 19 20 21 22 23 24 25 26 27 28
000
ASUS43 KEAX 251010
RWREAX

WEATHER ROUNDUP FOR EASTERN KANSAS AND NORTHWEST MISSOURI
NATIONAL WEATHER SERVICE KANSAS CITY/PLEASANT HILL MO
500 AM CDT TUE APR 25 2017

KSZ040-057-103>105-MOZ028-029-037-043-251100-
...KANSAS CITY METROPOLITAN AREA...

CITY           SKY/WX    TMP DP  RH WIND       PRES   REMARKS
K.C. INTL      CLOUDY    62  47  57 S15       29.53R
K.C. DOWNTOWN  CLOUDY    62  46  55 S6        29.54R
LEES SUMMIT    CLOUDY    60  45  57 S13       29.55R
OLATHE - IXD   CLOUDY    59  47  64 S9        29.54R
OLATHE - OJC   CLOUDY    59  47  64 S8        29.54R
LAWRENCE       CLOUDY    60  49  66 E7        29.50F

$$

MOZ001>008-011>017-020>025-030>033-038>040-044>046-053-054-251100-
...NORTHERN AND CENTRAL MISSOURI...

CITY           SKY/WX    TMP DP  RH WIND       PRES   REMARKS
ST. JOSEPH     CLOUDY    61  49  64 S9        29.53R
WHITEMAN AFB   MOCLDY    58  42  57 S10       29.56F
CLINTON        NOT AVBL
SEDALIA        CLOUDY    59  42  53 SE9       29.59F
WARSAW         NOT AVBL
CHILLICOTHE      N/A     56  38  50 SE6       29.56F
KIRKSVILLE     MOCLDY    49  32  52 S7        29.59F

$$

MOZ041-047>049-056>058-063>065-088>090-097-251100-
...EASTERN AND SOUTHERN MISSOURI...

CITY           SKY/WX    TMP DP  RH WIND       PRES   REMARKS
ST. LOUIS INTL MOCLDY    59  48  67 S9        29.69S
SPIRIT OF STL  CLOUDY    51  47  86 CALM      29.67F
COLUMBIA       CLEAR     55  43  63 S12       29.61F
JEFFERSON CITY CLEAR     59  42  53 E6        29.62F
ROLLA          CLOUDY    55  45  68 S12       29.64F
OSAGE BEACH    CLOUDY    57  43  59 S8        29.63F
SPRINGFIELD    CLEAR     55  42  61 SE12      29.61F
BRANSON        CLEAR     52  43  71 SE7       29.65F
JOPLIN         CLEAR     57  44  62 SE8       29.56F
WEST PLAINS    CLEAR     53  44  71 S5        29.69F

$$

IAZ060-094-KSZ022-034>040-054-083-096-NEZ052-066-093-251100-
...KANSAS...SOUTHEAST NEBRASKA AND IOWA...

CITY           SKY/WX    TMP DP  RH WIND       PRES   REMARKS
TOPEKA         CLOUDY    62  50  64 SE12      29.46F
MANHATTAN      CLOUDY    62  50  64 N3        29.44R
EMPORIA        CLOUDY    59  50  72 SE14G23   29.44F
CHANUTE        CLEAR     58  46  64 SE14      29.49F
WICHITA        MOCLDY    59  50  72 SE13      29.38F
OMAHA          CLOUDY    52  42  69 N8        29.51R
LINCOLN        LGT RAIN  50  42  74 N6        29.56R
FALLS CITY     CLOUDY    58  47  66 S3        29.50R
LAMONI         MOCLDY    55  38  52 S8        29.53S
DES MOINES     PTCLDY    57  39  51 SE8       29.52F

$$





USA.gov is the U.S. government's official web portal to all federal, state and local government web resources and services.